Αρχική σελίδα
METAR-TAF:

METAR-TAF

Αεροδρόμια :

Medicine Lodge Airport

Medicine Lodge, Κάνσας, Ηνωμένες Πολιτείες Αμερικής

γεωγραφικό πλάτος: 37-17-02N, γεωγραφικό μήκος: 098-33-10W, υψόμετρο: 469 μ

Παρών καιρός

Η αναφορά έγινε 1 ώρα και 1 λεπτά πριν, στις 17:56 UTC
Άνεμος 5 kt από Β/BΔ
Θερμοκρασία -1°C
Υγρασία 69%
Πίεση 1027 hPa

METAR: KP28 181756Z AUTO 34005KT M01/M06 A3033 RMK AO1 SLP289 T10111056 11011 21044 58012

Χρόνος: 12:57 (18:57 UTC)


TAF: λείπει

Μετεωρολογικές αναφορές και προγνώσεις για περισσότερα από 4000 αεροδρόμια (δελτία METAR και TAF).

Οι διαθέσιμοι σταθμοί απεικονίζονται στο χάρτη με κίτρινες και κόκκινες κουκκίδες.

Μετακινήστε το ποντίκι πάνω από τις κουκκίδες για να δείτε το όνομα του σταθμού.

Στη συνέχεια, κάντε κλικ για να δείτε τις μετεωρολογικές αναφορές και τις προγνώσεις καιρού.

Για να αλλάξετε το χάρτη: κάντε κλικ στα πράσινα κουμπιά με τον μαύρο σταυρό για να ζουμάρετε, στο πράσινο κουμπί με την παύλα για να αφαιρέσετε το ζουμ ή στα πράσινα βέλη για να αντιπαραβάλλετε χάρτες.


METAR-TAF: